Retour au catalogue

KUIPER-00041

ActifCommunicationsLEO
NORAD 64502·PAYLOAD·🇺🇸 United States

Lancé Jun 23, 2025 depuis Cape Canaveral Space Force Station

Loading…

Prochains Passages (prochaines 24 heures)

TLE

FraisSource: CelesTrak SupGP

Époque: Sep 14, 2026, 15:50 UTC

1 64502C 25134C   26257.66018519  .00001173  00000+0  15356-3 0  2571
2 64502  51.8973 129.9434 0000834 100.1651  45.9024 14.79917817    12

Suivez KUIPER-00041 en temps réel avec AllMySat

Download on the App Store